Location: Cébazat
(45.8341°N, 3.1005°E)
Time: 12:58:14
(UTC+00:00)

Daily predictions for brighter satellites

Satellite Brightness Start Highest point End
(mag) Time Altitude Azimuth Time Altitude Azimuth Time Altitude Azimuth
Ariane Rocket 3.2 20:08:01 10° SSE 20:13:02 60° ENE 20:18:03 10° N
Cosmos 1954 Rocket 4.3 20:12:41 10° NNW 20:17:57 69° WSW 20:23:06 10° S
Cosmos 1544 Rocket 3.6 20:15:34 10° N 20:19:54 72° E 20:24:15 10° SSE
Lacrosse 5 rocket 3.3 20:18:05 10° W 20:20:57 20° SW 20:23:55 10° S
Cosmos 1656 3.7 20:16:47 10° NNW 20:22:17 71° ENE 20:27:48 10° SSE
GEOS 3 Rocket 3.8 20:18:08 10° SSE 20:23:14 72° SW 20:28:22 10° NW
ATLAS 2AS CENTAUR R/B 3.1 20:21:43 10° NW 20:28:41 61° WSW 20:35:10 10° SSE
MetOp-B 4.2 20:24:58 10° SSE 20:30:18 74° ENE 20:35:40 10° N
Cosmos 1850 Rocket 4.2 20:26:05 10° NNW 20:31:14 58° ENE 20:36:19 10° SE
PSLV R/B 4.2 20:28:09 10° N 20:32:19 76° WNW 20:36:29 10° SSW
Cosmos 1980 Rocket 3.6 20:28:55 10° N 20:33:42 26° NE 20:38:26 10° ESE
Cosmos 1697 Rocket 3.3 20:28:54 10° NNW 20:34:18 45° ENE 20:39:32 11° SE
USA 32 4.0 20:29:24 10° S 20:34:38 86° E 20:39:53 10° N
SL-8 R/B 3.7 20:31:31 10° WNW 20:36:21 87° SSW 20:41:11 10° ESE
TSX-5 4.4 20:33:17 10° SSW 20:37:47 86° ESE 20:43:43 10° NNE
SPOT 1/Viking Rocket 3.9 20:35:36 10° S 20:40:42 66° WSW 20:45:52 10° NNW
COSMOS 2406 4.1 20:37:42 10° SSE 20:42:40 31° ESE 20:47:38 10° NE
Spot 2 Rocket 4.0 20:38:47 11° SE 20:43:33 49° ENE 20:48:28 10° N
Cosmos 1025 Rocket 4.5 20:40:27 10° SW 20:44:28 39° WNW 20:48:32 10° N
X-37B 0.2 20:41:44 10° W 20:44:31 67° S 20:47:01 12° ESE
Cosmos 2154 Rocket 4.4 20:38:42 10° N 20:44:41 47° ENE 20:50:11 12° SSE
SPOT 5 2.9 20:49:45 13° SSE 20:53:31 54° ENE 20:57:45 10° N
Cosmos 1703 3.2 20:51:47 10° S 20:55:36 68° E 20:59:26 10° NNE
Cosmos 2084 Rocket 4.1 20:53:02 10° NNW 20:56:45 41° NE 21:00:03 13° ESE
RESURS DK-1 2.4 20:53:49 10° NNW 20:57:58 80° WSW 21:01:19 15° SSE
Cosmos 1452 Rocket 3.6 20:53:09 10° SSW 20:58:25 82° WNW 21:03:42 10° NNE
Cosmos 1833 Rocket 2.7 20:53:03 10° SSW 20:58:36 68° ESE 21:04:12 10° NNE
Terra 2.4 20:56:28 14° SE 21:00:13 46° ENE 21:04:46 10° N
CZ-4B R/B 2.9 20:59:47 10° N 21:02:25 32° WNW 21:05:02 10° SW
Helios 1A Rocket 3.0 21:01:06 16° SSE 21:04:17 64° ENE 21:08:22 10° N
Cosmos 1110 Rocket 4.0 20:59:10 10° SSW 21:04:23 73° ESE 21:09:42 10° NNE
ERS-1 Rocket 3.1 21:02:33 15° SSE 21:06:44 67° ENE 21:11:44 10° N
Resurs 01 Rocket 3.4 21:03:32 10° SSW 21:07:22 28° W 21:11:14 10° NW
Cosmos 2228 2.9 21:07:43 10° N 21:11:59 84° E 21:15:15 17° S
Cosmos 2058 Rocket 4.4 21:09:04 10° NNE 21:12:50 26° ENE 21:15:19 17° ESE
Cosmos 1825 4.4 21:15:03 11° E 21:15:46 11° E 21:16:55 10° ENE
Cosmos 2184 Rocket 4.1 21:09:47 10° N 21:15:58 78° W 21:21:55 11° S
Cosmos 1408 3.9 21:16:14 19° ESE 21:17:14 22° E 21:19:58 10° NE
Lacrosse 5 3.8 21:14:36 10° WNW 21:18:11 19° WSW 21:21:45 10° SSW
Cosmos 968 Rocket 3.9 21:18:04 10° NNW 21:23:09 51° ENE 21:26:36 20° SE
Cosmos 1900 4.4 21:18:06 10° NW 21:23:18 81° WSW 21:26:45 21° SSE
Cosmos 1328 3.8 21:22:05 19° S 21:24:51 63° E 21:28:50 10° NNE
USA 276 3.6 21:24:34 10° WNW 21:27:24 35° N 21:30:14 10° ENE
Cosmos 2360 4.4 21:26:05 10° NNW 21:31:49 72° WSW 21:35:50 20° SSE
SJ 16-02 3.9 21:31:10 10° NE 21:31:59 10° NE 21:32:50 10° ENE
Cosmos 2082 Rocket 2.4 21:27:22 12° S 21:32:26 53° ESE 21:37:58 10° NE
Cosmos 1867 3.9 21:27:21 10° NNW 21:32:46 58° NE 21:36:30 20° ESE
USA 267 3.7 21:31:51 10° ENE 21:37:49 37° SE 21:43:45 10° SSW
ARIANE 5 R/B 2.6 21:35:43 24° SSE 21:38:21 78° ENE 21:42:48 10° N
Cosmos 1606 Rocket 3.6 21:36:22 10° NNW 21:40:42 75° W 21:43:24 22° S
GP-B 3.8 21:37:32 10° NNE 21:41:43 39° E 21:43:34 26° SE
Cosmos 2341 Rocket 4.2 21:36:50 10° N 21:43:06 61° ENE 21:47:01 23° SSE
Cosmos 2360 Rocket 4.5 21:41:14 10° N 21:44:29 15° NE 21:47:43 10° ENE
SAR-Lupe-4 4.3 21:42:45 10° NNE 21:46:03 34° E 21:46:46 31° SE
Cosmos 192 4.3 21:43:00 12° SSW 21:47:37 89° ESE 21:52:33 10° NNE
Okean 1-7 Rocket 4.2 21:58:40 31° SE 22:00:08 40° E 22:04:22 10° NNE
SAR-Lupe-1 4.0 21:59:07 10° NNE 22:02:40 63° E 22:03:39 42° SSE
Cosmos 1892 2.6 22:02:06 39° S 22:03:23 73° E 22:07:10 10° NNE
Cosmos 1726 Rocket 4.0 21:59:09 10° NNW 22:03:23 55° W 22:05:41 25° SSW
Cosmos 2181 Rocket 4.0 22:07:21 27° SSE 22:10:50 66° E 22:17:01 10° NNE
Cosmos 1633 4.0 22:12:09 23° E 22:12:09 23° E 22:14:53 10° NE
USA 234 4.0 22:06:08 10° E 22:12:24 50° NNE 22:18:41 10° NW
Cosmos 1992 Rocket 4.0 22:15:18 30° S 22:17:47 64° ESE 22:22:59 10° NNE
Cosmos 1697 Rocket 4.0 22:13:13 10° NW 22:18:03 30° WSW 22:21:16 18° SSW
Cosmos 1980 Rocket 2.5 22:12:30 10° NNW 22:18:06 60° WSW 22:20:52 29° S
SL-16 R/B 3.0 22:12:42 10° NNW 22:18:07 42° NE 22:21:23 22° ESE
Cosmos 1486 Rocket 4.1 22:13:32 10° NNW 22:18:45 68° ENE 22:21:05 33° SE
Cosmos 1932 4.4 22:13:39 11° SSW 22:19:36 80° ESE 22:25:57 10° NE
X-37B 2.7 22:17:26 10° W 22:18:13 15° WSW 22:18:13 15° WSW
Cosmos 1812 Rocket 4.5 22:16:35 10° N 22:20:45 37° ENE 22:22:08 29° ESE
Cosmos 2369 4.2 22:16:10 10° NW 22:21:41 50° WSW 22:24:31 27° S
COSMOS 2406 4.2 22:21:13 10° SW 22:26:46 46° WNW 22:32:18 10° NNE
Cosmos-2242 3.9 22:26:10 10° N 22:30:06 35° ENE 22:31:12 30° ESE
ATLAS 5 CENTAUR R/B 1.0 22:29:23 43° SSW 22:30:31 80° SE 22:34:39 10° NE
Cosmos 1602 Rocket 3.8 22:32:11 42° SE 22:33:06 50° E 22:37:17 10° NNE
In-Cosmos 22 Rocket 4.2 22:30:23 28° SSW 22:33:26 82° W 22:38:54 10° N
Cosmos 1869 3.1 22:30:23 10° N 22:34:18 90° NNW 22:35:09 54° S
ERS-2 4.4 22:36:17 10° ENE 22:37:40 13° E 22:37:40 13° E
Terra 3.7 22:35:21 14° SW 22:38:11 22° W 22:41:52 10° NW
Meteor 1-27 4.2 22:34:36 10° NNW 22:40:10 76° W 22:42:35 35° S
ALOS 2 3.4 22:39:48 32° ESE 22:41:10 41° ENE 22:45:19 10° N
FALCON 9 DEB 2.9 22:38:55 10° WNW 22:42:12 81° NNE 22:42:17 80° ENE
ASTEX 1 4.1 22:38:13 10° N 22:43:04 51° WNW 22:45:50 24° SW
Cosmos 1354 Rocket 4.3 22:41:43 10° NNW 22:46:59 59° ENE 22:49:06 34° SE
BREEZE-M DEB (TANK) 4.0 22:44:59 10° WNW 22:48:09 66° NNE 22:59:54 10° E
SL-8 Rocket 4.5 22:43:44 10° NNW 22:49:45 53° W 22:53:01 27° SSW
ADEOS Rocket 3.7 22:45:43 28° SE 22:49:51 63° ENE 22:57:29 10° N
Cosmos 1825 2.6 22:49:40 41° SW 22:50:36 54° W 22:54:17 10° N
Cosmos 2058 Rocket 4.4 22:46:54 10° NNW 22:50:49 31° W 22:52:35 23° SW
Cosmos 2322 Rocket 2.6 22:48:04 10° NNW 22:53:41 56° ENE 22:56:24 29° SE
Cosmos 1626 Rocket 3.9 22:54:43 38° SW 22:56:11 60° WNW 23:00:30 10° N
Cosmos 1503 Rocket 3.9 22:51:27 10° NNW 22:56:48 85° ENE 22:58:35 43° SSE
USA 276 2.6 23:00:23 10° WNW 23:02:50 52° NW 23:02:50 52° NW
Cosmos 2278 4.4 22:58:58 10° NW 23:04:21 43° WSW 23:06:17 32° SSW
Cosmos 1777 Rocket 4.4 22:59:35 10° NNW 23:04:48 55° ENE 23:06:53 34° SE
Cosmos 2333 Rocket 3.6 23:03:35 10° NNW 23:08:45 32° NE 23:12:52 15° ESE
Cosmos 1825 Rocket 3.8 23:08:17 48° ESE 23:08:53 52° E 23:13:06 10° NNE
CENTAUR R/B 4.4 23:09:34 11° ESE 23:10:14 11° E 23:11:40 10° E
Gbstr 26 Del rocket 3.6 23:11:08 42° ESE 23:11:08 42° ESE 23:15:17 10° ENE
SJ 16-02 1.3 23:06:56 10° NNW 23:11:22 75° ENE 23:12:19 54° SE
Cosmos 1340 Rocket 3.6 23:13:04 35° E 23:13:08 35° E 23:16:47 10° NNE
Meteor 2-20 4.4 23:13:53 36° SSW 23:16:33 82° W 23:22:40 10° N
Cosmos 2082 Rocket 4.0 23:11:54 10° WSW 23:16:49 29° NW 23:21:44 10° N
H-2A R/B 3.4 23:15:57 10° NNE 23:20:10 86° WNW 23:20:55 60° SSW
USA 267 3.4 23:14:37 10° NE 23:21:09 75° NNW 23:27:40 10° WSW
Cosmos 2058 2.8 23:26:08 65° SSE 23:26:39 76° E 23:30:50 10° NNE
Cosmos 2221 3.6 23:23:11 10° N 23:27:14 36° ENE 23:28:17 31° ESE
Cosmos 1606 2.6 23:24:10 10° NNW 23:28:02 73° W 23:28:16 70° SW
Spot 4 4.5 23:27:39 36° SW 23:28:48 43° W 23:33:23 10° NNW
Cosmos 2360 Rocket 2.4 23:23:55 10° NNW 23:29:36 68° ENE 23:32:00 35° SE
Cosmos 1934 Rocket 4.0 23:24:34 10° N 23:30:39 69° E 23:33:06 38° SSE
Cosmos 1833 4.3 23:39:57 45° SSE 23:41:24 59° ESE 23:46:54 10° NNE
Cosmos 44 3.3 23:41:21 52° SE 23:41:38 53° ESE 23:46:01 10° NE
Meteor 2-2 Rocket 4.3 23:36:21 10° NNW 23:42:24 87° W 23:44:36 42° S
Cosmos 2237 4.3 23:39:35 10° NNW 23:45:15 63° WSW 23:46:53 44° S
Cosmos 1633 4.3 23:45:56 21° W 23:46:31 22° WNW 23:49:17 10° NNW
Cosmos 1339 Rocket 4.4 23:50:04 41° S 23:52:23 80° E 23:58:33 10° N
